Tracking 28790 objects as of 19-Apr-2024
HD Live streaming from Space Station
objects crossing your sky now

SL-16 DEB

Track SL-16 DEB now!
10-day predictions


NORAD ID: 22499
Int'l Code: 1992-093GJ
Perigee: 604.5 km
Apogee: 661.3 km
Inclination: 71.4 °
Period: 97.2 minutes
Semi major axis: 7003 km
RCS: 0.005 m2 (small)
Launch date: December 25, 1992
Source: Commonwealth of Independent States (former USSR) (CIS)
Launch site: TYURATAM MISSILE AND SPACE COMPLEX (TTMTR)

Note: This is SATELLITE DEBRIS
Your satellite tracking list
Your tracking list is empty




NASA's NSSDC Master Catalog

Two Line Element Set (TLE):
1 22499U 92093GJ  24109.92502927  .00100530  00000-0  12568-1 0  9993
2 22499  71.3869 316.4534 0040529 131.5509 294.5142 14.81135809616574
Source of the keplerian elements: AFSPC